Hourly Data Report for March 14, 2017

PORT ALBERNI (AUT)
BRITISH COLUMBIA

49°18'59.700" N
124°55'36.600" W
76.20 m
1036B06
71475
WQC

Download Data

Hourly Data (March 2017)
Hourly Data Report for March 14, 2017
TIME
LST
Temp Definition
°C
Dew Point Definition
°C
Rel Hum Definition
%
Precip. Amount Definition
mm

Wind Dir Definition
10's deg

Wind Spd Definition
km/h
Visibility Definition
km
Stn Press Definition
kPa
Hmdx Definition


Wind Chill Definition


Weather Definition


00:00 6.3 6.0 98 0.1 24 5   100.38     LegendNANA
01:00 6.1 5.8 98 0.6 32 3   100.29     LegendNANA
02:00 6.0 5.7 98 0.8   0   100.16     LegendNANA
03:00 5.9 5.5 98 1.0 36 3   99.98     LegendNANA
04:00 5.7 5.5 98 0.7 32 4   99.82     LegendNANA
05:00 5.6 5.3 98 1.0 33 3   99.71     LegendNANA
06:00 5.4 5.2 98 1.7 26 2   99.59     LegendNANA
07:00 5.5 5.2 98 1.6   0   99.56     LegendNANA
08:00 5.6 5.3 98 1.3 31 7   99.63     LegendNANA
09:00 6.3 5.9 98 0.5 23 3   99.67     LegendNANA
10:00 7.8 7.1 96 0.0 0 1   99.75     LegendNANA
11:00 9.6 8.5 93 0.0 12 8   99.80     LegendNANA
12:00 10.7 9.2 90 0.0 11 7   99.88     LegendNANA
13:00 11.3 9.8 91 0.0 9 9   99.86     LegendNANA
14:00 11.0 9.9 93 0.4 15 5   99.91     LegendNANA
15:00 11.2 10.4 95 0.9 11 6   99.91     LegendNANA
16:00 11.1 9.7 91 0.5 9 2   100.01     LegendNANA
17:00 10.5 9.3 92 0.0 9 15   100.06     LegendNANA
18:00 9.5 8.2 92 0.0 11 10   100.12     LegendNANA
19:00 7.9 6.3 89 0.0 13 10   100.26     LegendNANA
20:00 6.2 5.3 94 0.0 19 7   100.31     LegendNANA
21:00 4.5 4.0 96 0.0 30 2   100.36     LegendNANA
22:00 3.1 2.6 97 0.0 31 4   100.41     LegendNANA
23:00 1.8 1.4 97 0.1 0 1   100.44     LegendNANA

Notes on Data Quality.

Legend

  • E = Estimated
  • M = Missing
  • NA = Not Available*
  • [empty] = Indicates an unobserved value
Date modified: